Regional Weather Roundup
Issued by NWS

Home | Current Version | Previous Version | Graphics & Text | Print | Product List | Glossary On
Versions: 1 2 3 4 5 6 7 8 9 10 11 12 13 14 15 16 17 18 19 20 21 22 23 24 25 26 27 28 29 30 31 32 33 34 35 36 37 38 39 40 41 42 43 44 45 46 47 48 49 50
000
ASUS43 KFSD 201702
RWRSD

WEATHER ROUNDUP FOR SOUTH DAKOTA
NATIONAL WEATHER SERVICE SIOUX FALLS SD
1200 PM CDT WED AUG 20 2014

NOTE: "FAIR" INDICATES FEW OR NO CLOUDS BELOW 12,000 FEET WITH NO
SIGNIFICANT WEATHER AND/OR OBSTRUCTIONS TO VISIBILITY.


SDZ001>005-009-010-012>017-201800-
NORTHWEST AND NORTH CENTRAL SOUTH DAKOTA

CITY           SKY/WX    TMP DP  RH WIND       PRES   REMARKS
BUFFALO          N/A     74  63  68 S7        29.65F
FAITH            N/A     72  65  78 SE9       29.72R
MOBRIDGE       PTSUNNY   80  66  62 SE18G24   29.69F
$$

SDZ012>016-024>037-041>051-057-063-072>074-201800-
SOUTHWEST AND SOUTH CENTRAL SOUTH DAKOTA

CITY           SKY/WX    TMP DP  RH WIND       PRES   REMARKS
RAPID CTY ARPT PTSUNNY   79  63  57 SE6       29.75S
PIERRE         CLOUDY    80  69  69 SE10      29.70S
CUSTER         PTSUNNY   76  50  40 W12G23    29.90S
ELLSWORTH AFB  PTSUNNY   78  60  55 S5        29.75S
PHILIP         CLOUDY    78  61  55 E5        29.69F
PINE RIDGE     CLOUDY    74  57  55 VRB3      29.79S
WINNER         FAIR      81  69  67 SE8       29.74R
$$

SDZ004>011-016>023-039-040-201800-
NORTHEAST SOUTH DAKOTA

CITY           SKY/WX    TMP DP  RH WIND       PRES   REMARKS
ABERDEEN       CLOUDY    80  67  64 SE13      29.75F
WATERTOWN      PTSUNNY   77  65  66 SE12      29.81F
SISSETON         N/A     78  66  66 S17       29.78S
$$

SDZ017-020-022-023-036>040-048>070-201800-
SOUTHEAST SOUTH DAKOTA

CITY           SKY/WX    TMP DP  RH WIND       PRES   REMARKS
SIOUX FALLS    PTSUNNY   75  67  76 S8        29.81R
HURON          MOSUNNY   81  65  58 S18G26    29.74F
CHAMBERLAIN    MOSUNNY   79  70  73 SE12      29.73S
MITCHELL       SUNNY     80  68  66 S15       29.74F
YANKTON        MOSUNNY   77  70  78 SE12      29.75F
$$

ABBREVIATIONS USED IN REMARKS
   TC - TEMPERATURE IN CELSIUS
  WCI - WIND CHILL INDEX
   HX - HEAT INDEX
  VSB - VISIBILITY




USA.gov is the U.S. government's official web portal to all federal, state and local government web resources and services.